Weather History for KAQP - February, 2013

Change the Weather History Date:

Thursday, February 28, 2013

  Actual Average Record
Temperature  
Mean Temperature 22 °F -  
Max Temperature 26 °F 25 °F 42 °F (2004)
Min Temperature 17 °F 10 °F -13 °F (2009)
Degree Days  
Heating Degree Days 44    
Moisture  
Dew Point 19 °F    
Average Humidity 86    
Maximum Humidity 93    
Minimum Humidity 80    
Precipitation  
Precipitation 0.00 in - - ()
Sea Level Pressure  
Sea Level Pressure 30.20 in    
Wind  
Wind Speed 13 mph (NNW)    
Max Wind Speed 17 mph    
Max Gust Speed -    
Visibility 10 miles    
Events      
Averages and records for this station are not official NWS values.
T = Trace of Precipitation, MM = Missing Value Source: NWS Daily Summary

Daily Weather History Graph

Daily Weather History Graph

Search for Another Location

Airport or City:

Trip Planner

Search our weather history database for the weather conditions in past years. The results will help you decide how hot, cold, wet, or windy it might be!

Date:

Astronomy

Feb. 28, 2013 Rise Set
Actual Time 7:03 AM CST 6:10 PM CST
Civil Twilight 6:33 AM CST 6:39 PM CST
Nautical Twilight 5:59 AM CST 7:14 PM CST
Astronomical Twilight 5:25 AM CST 7:48 PM CST
Moon 9:51 PM CST (2/28) 8:02 AM CST (2/28)
Length of Visible Light 12h 06m
Length of Day
11h 06m
Waning Gibbous, 90% of the Moon is Illuminated
Feb 28
Waning Gibbous
Mar 4
Last Quarter
Mar 11
New
Mar 19
First Quarter
Mar 27
Full

Hourly Weather History & Observations

Time (CST) Temp. Windchill Dew Point Humidity Pressure Visibility Wind Dir Wind Speed Gust Speed Precip Events Conditions
12:13 AM 19.4 °F 4.5 °F 17.6 °F 93% 30.12 in 7.0 mi NNW 17.3 mph - N/A   Clear
12:53 AM 19.4 °F 5.0 °F 17.6 °F 93% 30.12 in 10.0 mi NNW 16.1 mph - N/A   Clear
1:14 AM 17.6 °F 2.7 °F 15.8 °F 93% 30.12 in 10.0 mi NNW 16.1 mph - N/A   Clear
1:33 AM 17.6 °F 3.7 °F 15.8 °F 93% 30.13 in 10.0 mi NNW 13.8 mph - N/A   Clear
1:53 AM 17.6 °F 3.7 °F 15.8 °F 93% 30.13 in 10.0 mi NNW 13.8 mph - N/A   Clear
2:13 AM 17.6 °F 4.3 °F 14.0 °F 86% 30.14 in 10.0 mi NNW 12.7 mph - N/A   Clear
2:33 AM 17.6 °F 2.2 °F 15.8 °F 93% 30.14 in 7.0 mi NNW 17.3 mph - N/A   Mostly Cloudy
2:53 AM 19.4 °F 5.5 °F 17.6 °F 93% 30.15 in 7.0 mi NNW 15.0 mph - N/A   Overcast
3:14 AM 19.4 °F 6.0 °F 17.6 °F 93% 30.15 in 10.0 mi NNW 13.8 mph - N/A   Overcast
3:34 AM 19.4 °F 6.0 °F 17.6 °F 93% 30.15 in 10.0 mi NNW 13.8 mph - N/A   Overcast
3:53 AM 19.4 °F 6.6 °F 17.6 °F 93% 30.14 in 10.0 mi North 12.7 mph - N/A   Overcast
4:14 AM 19.4 °F 7.2 °F 17.6 °F 93% 30.15 in 10.0 mi NNW 11.5 mph - N/A   Overcast
4:34 AM 19.4 °F 7.2 °F 17.6 °F 93% 30.15 in 10.0 mi NNW 11.5 mph - N/A   Overcast
4:53 AM 21.2 °F 9.5 °F 17.6 °F 86% 30.16 in 10.0 mi NNW 11.5 mph - N/A   Overcast
5:13 AM 21.2 °F 9.5 °F 17.6 °F 86% 30.17 in 10.0 mi NNW 11.5 mph - N/A   Overcast
5:33 AM 21.2 °F 9.5 °F 17.6 °F 86% 30.17 in 10.0 mi NNW 11.5 mph - N/A   Overcast
5:53 AM 21.2 °F 10.1 °F 17.6 °F 86% 30.17 in 10.0 mi NNW 10.4 mph - N/A   Overcast
6:13 AM 21.2 °F 9.5 °F 17.6 °F 86% 30.18 in 10.0 mi NNW 11.5 mph - N/A   Overcast
6:33 AM 21.2 °F 10.1 °F 19.4 °F 93% 30.18 in 10.0 mi NNW 10.4 mph - N/A   Overcast
6:53 AM 21.2 °F 8.9 °F 19.4 °F 93% 30.18 in 10.0 mi NNW 12.7 mph - N/A   Overcast
7:13 AM 21.2 °F 8.9 °F 19.4 °F 93% 30.18 in 10.0 mi NNW 12.7 mph - N/A   Overcast
7:33 AM 21.2 °F 8.9 °F 19.4 °F 93% 30.19 in 10.0 mi NNW 12.7 mph - N/A   Overcast
7:53 AM 21.2 °F 8.9 °F 19.4 °F 93% 30.19 in 10.0 mi NNW 12.7 mph - N/A   Overcast
8:14 AM 23.0 °F 11.1 °F 19.4 °F 86% 30.19 in 10.0 mi NNW 12.7 mph - N/A   Overcast
8:33 AM 23.0 °F 12.4 °F 19.4 °F 86% 30.20 in 10.0 mi NNW 10.4 mph - N/A   Overcast
8:53 AM 24.8 °F 14.6 °F 19.4 °F 80% 30.20 in 10.0 mi North 10.4 mph - N/A   Overcast
9:13 AM 24.8 °F 13.4 °F 21.2 °F 86% 30.20 in 10.0 mi NNW 12.7 mph - N/A   Overcast
9:34 AM 24.8 °F 15.3 °F 21.2 °F 86% 30.20 in 10.0 mi NW 9.2 mph - N/A   Overcast
9:53 AM 24.8 °F 15.3 °F 21.2 °F 86% 30.21 in 10.0 mi NNW 9.2 mph - N/A   Overcast
10:13 AM 24.8 °F 14.6 °F 21.2 °F 86% 30.21 in 10.0 mi NNW 10.4 mph - N/A   Overcast
10:33 AM 24.8 °F 14.6 °F 21.2 °F 86% 30.21 in 10.0 mi NW 10.4 mph - N/A   Overcast
10:53 AM 26.6 °F 16.8 °F 21.2 °F 80% 30.22 in 10.0 mi NW 10.4 mph - N/A   Overcast
11:14 AM 26.6 °F 16.8 °F 21.2 °F 80% 30.22 in 10.0 mi NNW 10.4 mph - N/A   Overcast
11:34 AM 26.6 °F 17.5 °F 21.2 °F 80% 30.22 in 10.0 mi NNW 9.2 mph - N/A   Overcast
11:53 AM 26.6 °F 17.5 °F 21.2 °F 80% 30.22 in 10.0 mi NW 9.2 mph - N/A   Overcast
12:13 PM 26.6 °F 17.5 °F 21.2 °F 80% 30.22 in 10.0 mi NNW 9.2 mph - N/A   Overcast
12:33 PM 26.6 °F 17.5 °F 21.2 °F 80% 30.21 in 10.0 mi NNW 9.2 mph - N/A   Overcast
12:53 PM 26.6 °F 17.5 °F 21.2 °F 80% 30.21 in 10.0 mi NNW 9.2 mph - N/A   Overcast
1:13 PM 26.6 °F 16.8 °F 21.2 °F 80% 30.21 in 10.0 mi NNW 10.4 mph - N/A   Overcast
1:33 PM 26.6 °F 16.2 °F 21.2 °F 80% 30.21 in 10.0 mi NNW 11.5 mph - N/A   Overcast
1:53 PM 26.6 °F 16.8 °F 21.2 °F 80% 30.21 in 10.0 mi NNW 10.4 mph - N/A   Overcast
2:13 PM 26.6 °F 16.2 °F 21.2 °F 80% 30.21 in 10.0 mi NW 11.5 mph - N/A   Overcast
2:33 PM 26.6 °F 15.7 °F 21.2 °F 80% 30.21 in 10.0 mi NW 12.7 mph - N/A   Overcast
3:34 PM 26.6 °F 15.7 °F 21.2 °F 80% 30.21 in 10.0 mi NNW 12.7 mph - N/A   Overcast
3:53 PM 26.6 °F 16.2 °F 21.2 °F 80% 30.21 in 10.0 mi NNW 11.5 mph - N/A   Overcast
4:13 PM 26.6 °F 16.2 °F 21.2 °F 80% 30.21 in 10.0 mi North 11.5 mph - N/A   Overcast
4:33 PM 26.6 °F 16.2 °F 21.2 °F 80% 30.21 in 10.0 mi NNW 11.5 mph - N/A   Overcast
4:53 PM 26.6 °F 15.7 °F 21.2 °F 80% 30.21 in 10.0 mi NNW 12.7 mph - N/A   Overcast
5:13 PM 26.6 °F 15.7 °F 21.2 °F 80% 30.22 in 10.0 mi NNW 12.7 mph - N/A   Overcast
5:33 PM 24.8 °F 15.3 °F 21.2 °F 86% 30.22 in 10.0 mi NNW 9.2 mph - N/A   Overcast
5:53 PM 24.8 °F 13.4 °F 21.2 °F 86% 30.23 in 10.0 mi NNW 12.7 mph - N/A   Overcast
6:13 PM 24.8 °F 15.3 °F 21.2 °F 86% 30.23 in 10.0 mi NNW 9.2 mph - N/A   Overcast
6:33 PM 24.8 °F 14.6 °F 21.2 °F 86% 30.24 in 10.0 mi NNW 10.4 mph - N/A   Overcast
6:53 PM 24.8 °F 16.1 °F 21.2 °F 86% 30.24 in 10.0 mi North 8.1 mph - N/A   Overcast
7:13 PM 24.8 °F 15.3 °F 19.4 °F 80% 30.24 in 10.0 mi North 9.2 mph - N/A   Overcast
7:33 PM 24.8 °F 16.1 °F 19.4 °F 80% 30.24 in 10.0 mi NNW 8.1 mph - N/A   Overcast
7:53 PM 24.8 °F 15.3 °F 19.4 °F 80% 30.25 in 10.0 mi NNW 9.2 mph - N/A   Overcast
8:13 PM 24.8 °F 15.3 °F 19.4 °F 80% 30.25 in 10.0 mi NNW 9.2 mph - N/A   Overcast
8:53 PM 24.8 °F 15.3 °F 19.4 °F 80% 30.25 in 10.0 mi NNW 9.2 mph - N/A   Overcast
9:13 PM 24.8 °F 16.1 °F 19.4 °F 80% 30.25 in 10.0 mi NNW 8.1 mph - N/A   Overcast
9:33 PM 23.0 °F 11.7 °F 19.4 °F 86% 30.25 in 10.0 mi NNW 11.5 mph - N/A   Overcast
9:53 PM 23.0 °F 13.1 °F 19.4 °F 86% 30.25 in 10.0 mi NNW 9.2 mph - N/A   Overcast
10:13 PM 21.2 °F 10.9 °F 17.6 °F 86% 30.25 in 10.0 mi North 9.2 mph - N/A   Mostly Cloudy
10:33 PM 21.2 °F 10.9 °F 17.6 °F 86% 30.26 in 10.0 mi North 9.2 mph - N/A   Clear
10:53 PM 19.4 °F 9.5 °F 15.8 °F 86% 30.26 in 10.0 mi North 8.1 mph - N/A   Clear
11:14 PM 19.4 °F 9.5 °F 17.6 °F 93% 30.25 in 10.0 mi North 8.1 mph - N/A   Clear
11:33 PM 19.4 °F 9.5 °F 15.8 °F 86% 30.25 in 10.0 mi North 8.1 mph - N/A   Clear
11:53 PM 17.6 °F 8.2 °F 15.8 °F 93% 30.26 in 10.0 mi NNW 6.9 mph - N/A   Clear